IST,Max TemperatureF,Mean TemperatureF,Min TemperatureF,Max Dew PointF,MeanDew PointF,Min DewpointF,Max Humidity, Mean Humidity, Min Humidity, Max Sea Level PressureIn, Mean Sea Level PressureIn, Min Sea Level PressureIn, Max VisibilityMiles, Mean VisibilityMiles, Min VisibilityMiles, Max Wind SpeedMPH, Mean Wind SpeedMPH, Max Gust SpeedMPH,PrecipitationIn, CloudCover, Events, WindDirDegrees
2011-10-1,95,86,78,79,75,68,89,72,44,29.80,29.74,29.65,4,4,2,12,6,,0.00,2,,217
2011-10-2,96,87,78,79,75,68,89,72,39,29.80,29.74,29.65,5,4,2,10,5,,0.00,4,,219
2011-10-3,91,84,77,79,75,72,89,75,52,29.80,29.75,29.68,6,4,2,10,6,,0.00,5,Rain,240
2011-10-4,89,86,82,81,75,70,94,73,55,29.80,29.74,29.68,6,4,2,14,5,,0.00,5,,270
2011-10-5,93,86,78,79,76,72,94,73,49,29.86,29.78,29.71,5,4,2,13,5,,0.00,3,Rain-Thunderstorm,195
2011-10-6,91,86,80,79,77,75,89,78,59,29.89,29.81,29.74,5,4,2,10,5,,0.00,3,Thunderstorm,164
2011-10-7,93,85,77,77,75,72,89,73,52,29.86,29.80,29.74,5,4,2,12,6,,0.00,2,,199
2011-10-8,95,86,77,81,77,72,94,79,47,29.86,29.79,29.68,5,3,1,23,5,34,0.00,3,Rain-Thunderstorm,225
2011-10-9,95,86,77,81,75,70,94,74,49,29.83,29.78,29.68,4,3,2,14,6,,0.00,2,Thunderstorm,199
2011-10-10,91,84,78,79,77,73,94,76,59,29.86,29.80,29.71,5,4,2,12,4,,0.00,1,,71
2011-10-11,87,82,77,79,77,72,94,84,66,29.86,29.81,29.74,4,3,1,14,3,,0.00,5,Rain-Thunderstorm,289
2011-10-12,89,83,77,79,77,75,100,83,62,29.86,29.79,29.71,4,4,2,14,4,,0.00,3,Rain,354
2011-10-13,89,84,78,79,77,75,94,80,62,29.83,29.77,29.68,5,4,2,10,4,,0.00,2,,87
2011-10-14,86,82,78,79,77,75,100,87,79,29.83,29.77,29.71,4,3,2,8,2,,0.00,4,Rain,256
2011-10-15,87,82,77,79,77,75,100,82,66,29.83,29.75,29.68,5,4,2,9,2,,0.00,2,,175
2011-10-16,89,84,78,79,77,75,94,81,62,29.80,29.74,29.68,5,4,2,9,3,,0.00,2,,171
2011-10-17,89,83,77,79,77,75,100,84,62,29.83,29.75,29.68,4,3,2,9,3,,0.00,2,,30
2011-10-18,89,83,77,79,77,73,100,87,62,29.83,29.77,29.71,4,3,1,12,1,,0.00,3,Rain-Thunderstorm,286
2011-10-19,91,84,77,77,74,68,100,78,46,29.80,29.73,29.68,4,3,1,10,3,,0.00,2,,327
2011-10-20,91,83,75,77,75,70,94,75,49,29.80,29.74,29.68,4,3,1,10,3,,0.00,1,,178
2011-10-21,91,84,77,77,76,73,94,79,55,29.80,29.75,29.68,4,2,1,13,2,,0.00,2,Fog,87
2011-10-22,91,84,77,77,76,73,94,79,62,29.83,29.76,29.71,6,3,1,12,3,,0.00,2,,106
2011-10-23,89,83,77,77,76,75,94,79,62,29.86,29.79,29.74,5,3,1,14,4,,0.00,2,,42
2011-10-24,86,80,75,77,76,75,100,85,70,29.86,29.79,29.71,5,3,1,14,4,,0.00,6,Rain-Thunderstorm,31
2011-10-25,78,76,75,77,75,73,100,95,89,29.86,29.79,29.74,2,1,1,10,4,,0.00,7,Rain-Thunderstorm,17
2011-10-26,86,80,75,79,75,73,100,94,70,29.86,29.81,29.77,4,2,1,12,2,,0.00,6,Rain-Thunderstorm,9
2011-10-27,82,78,75,77,76,73,94,91,84,29.89,29.82,29.77,4,3,2,7,2,,0.00,6,Rain-Thunderstorm,1
2011-10-28,87,81,75,79,76,75,100,85,70,29.89,29.81,29.74,5,3,2,10,4,,0.00,3,Thunderstorm,19
2011-10-29,86,80,75,79,76,73,100,92,74,29.86,29.80,29.74,4,2,1,10,2,,0.00,5,Rain-Thunderstorm,346
2011-10-30,86,80,75,79,76,73,100,88,74,29.83,29.78,29.71,4,3,2,10,4,,0.00,5,Rain,3
2011-10-31,84,80,75,77,76,73,100,90,74,29.86,29.79,29.74,4,2,1,9,3,,0.00,6,Rain-Thunderstorm,340